Tracking 29892 objects as of 21-Nov-2024
HD Live streaming from Space Station
objects crossing your sky now

STARLINK-30934

Track STARLINK-30934 now!
10-day predictions
STARLINK-30934 is classified as:


NORAD ID: 58395
Int'l Code: 2023-178X
Perigee: 481.4 km
Apogee: 483.3 km
Inclination: 53.2 °
Period: 94.1 minutes
Semi major axis: 6853 km
RCS: Unknown
Launch date: November 20, 2023
Source: United States (US)
Launch site: AIR FORCE WESTERN TEST RANGE (AFWTR)
Your satellite tracking list
Your tracking list is empty




NASA's NSSDC Master Catalog

Two Line Element Set (TLE):
1 58395U 23178X   24325.20983722 -.00000320  00000-0  13255-5 0  9997
2 58395  53.1586  45.2555 0001337 135.0408 225.0701 15.30196367 57179
Source of the keplerian elements: AFSPC